Startseite
Über Mich
AHP4
Galerie
Sehschlangen
Tourenbuch
Bookmarks
Elektronik
Bewertung
Geschichten
[Tagesmessung] [Jahreswerte] [Information]

Messwerte vom 03.06.2022

Die letzten Messwerte von 23:58:46 Uhr:
KategorieMesswert
Temperatur [°C]17
Luftdruck [mBar]1002
Sonneneinstrahlung0
Wind [km/h]3 aus Nord
Niederschlag [l/m²]0
rel.Luftfeucht.59.3%
CO2 [ppm]576

Diagramme
Messwerte vom 03.06.2022
Tagesaggregation
KategorieMinimumMaximumSchnittSumme
Temperatur [°C]53016.9563
Luftdruck [mBar]100010061004.0146
Sonneneinstrahlung247139.9646
Wind [km/h]15
rF [%]28.896.663.8
Niederschlag [l/m²]0
CO2 [ppm]401796534.8
Einordnung alsVegetationstag
Sommertag
Heißer Tag

Messungen an benachbarten Tagen: Zur Jahresaggregation 2022
Tabelle aller Messwerte
UhrzeitTemperatur [°C]Luftdruck [mBar]SonneWind [km/h]RichtungRegen [l/m²]rF [%]CO2 [ppm]
00:01:48 8 1006 0 0 N 0 92.5 596
00:04:44 8 1006 0 0 N 0 92.6 594
00:07:47 8 1006 0 0 N 0 92.8 590
00:10:47 8 1006 0 0 N 0 93.2 592
00:13:52 8 1006 0 0 N 0 93.6 608
00:16:49 8 1006 0 0 SO 0 93.5 612
00:19:49 8 1006 0 0 NO 0 93.4 625
00:22:47 8 1006 0 0 NO 0 93.5 641
00:25:47 8 1006 0 0 NO 0 93.8 653
00:28:48 8 1006 0 0 NO 0 94 654
00:31:48 8 1006 0 0 NO 0 94.1 651
00:34:46 8 1006 0 0 NO 0 94.1 649
00:37:46 8 1006 0 0 NO 0 94.1 650
00:40:47 8 1006 0 0 NO 0 94.2 651
00:43:46 8 1006 0 0 NO 0 94.4 653
00:46:47 8 1006 0 0 NO 0 94.8 642
00:49:47 8 1006 0 0 NO 0 94.8 646
00:52:46 8 1006 0 0 NO 0 94.8 644
00:55:48 8 1006 0 0 NO 0 95.1 639
00:58:45 7 1006 0 0 NO 0 95 638
01:01:48 7 1006 0 2 O 0 94.8 639
01:04:49 7 1006 0 1 SO 0 94.8 639
01:07:47 7 1006 0 1 N 0 95.1 639
01:10:49 7 1006 0 0 N 0 95.5 640
01:13:47 7 1006 0 0 N 0 95.8 646
01:16:47 7 1006 0 0 N 0 95.9 656
01:19:46 7 1006 0 0 N 0 95.8 642
01:22:45 7 1006 0 0 N 0 95.8 642
01:25:46 7 1006 0 0 N 0 95.8 645
01:28:48 7 1006 0 0 N 0 95.8 651
01:31:47 7 1006 0 0 N 0 95.8 653
01:34:47 7 1006 0 0 S 0 96.1 653
01:37:46 7 1006 0 0 S 0 96 651
01:40:44 7 1006 0 0 S 0 96.1 661
01:43:46 7 1006 0 0 NO 0 96.1 662
01:46:46 7 1006 0 0 NO 0 96.4 667
01:49:47 7 1006 0 0 NO 0 96.6 668
01:52:46 7 1006 0 0 N 0 96.5 668
01:55:46 7 1006 0 0 N 0 96.6 668
01:58:46 7 1006 0 0 NO 0 96.6 667
02:01:46 7 1006 0 0 NO 0 96.6 679
02:04:46 7 1006 0 0 NO 0 96.6 685
02:07:47 6 1006 0 0 NO 0 96.6 683
02:10:47 6 1006 0 0 NO 0 96.6 683
02:13:48 7 1006 0 0 NO 0 96.6 686
02:16:47 6 1006 0 0 NO 0 96.6 690
02:19:48 6 1006 0 0 NO 0 96.6 688
02:22:50 6 1006 0 0 NO 0 96.6 692
02:25:47 6 1006 0 0 NO 0 96.6 700
02:28:47 6 1006 0 0 NO 0 96.6 700
02:31:48 6 1006 0 0 NO 0 96.6 700
02:34:48 6 1006 0 0 NO 0 96.6 700
02:37:47 6 1006 0 0 NO 0 96.6 700
02:40:49 6 1006 0 0 NO 0 96.6 703
02:43:47 6 1006 0 0 NO 0 96.6 711
02:46:46 6 1006 0 0 NO 0 96.6 711
02:49:46 6 1006 0 0 NO 0 96.6 711
02:52:46 6 1006 0 0 NO 0 96.6 720
02:55:46 6 1006 0 0 NO 0 96.6 726
02:58:46 6 1006 0 0 NO 0 96.6 729
03:01:47 6 1006 0 0 NO 0 96.6 718
03:04:47 6 1006 0 0 NO 0 96.6 725
03:07:47 6 1006 0 0 NO 0 96.6 725
03:10:47 6 1006 0 0 NO 0 96.6 735
03:13:46 6 1005 0 0 NO 0 96.6 738
03:16:47 6 1006 0 0 NO 0 96.6 742
03:19:46 6 1006 0 0 NO 0 96.6 733
03:22:46 6 1006 0 0 NO 0 96.6 737
03:25:46 6 1006 0 0 NO 0 96.6 735
03:28:47 6 1006 0 0 NO 0 96.6 739
03:31:46 6 1006 0 0 NO 0 96.6 743
03:34:47 6 1006 0 0 NO 0 96.6 741
03:37:46 6 1006 0 0 NO 0 96.6 735
03:40:48 6 1006 0 0 NO 0 96.6 732
03:43:48 5 1006 0 0 NO 0 96.6 738
03:46:47 5 1006 0 0 NO 0 96.6 741
03:49:47 5 1006 0 0 NO 0 96.6 743
03:52:46 5 1006 0 0 NO 0 96.6 744
03:55:47 5 1006 0 0 NO 0 96.6 738
03:58:49 5 1006 0 0 NO 0 96.6 738
04:01:48 5 1006 0 0 NO 0 96.6 738
04:04:49 5 1006 0 0 NO 0 96.6 736
04:07:47 5 1006 0 0 NO 0 96.6 751
04:10:49 5 1006 0 0 NO 0 96.6 754
04:13:48 5 1006 0 0 NO 0 96.6 757
04:16:48 5 1006 0 0 NO 0 96.6 759
04:19:48 5 1006 0 0 NO 0 96.6 758
04:22:45 5 1006 0 0 NO 0 96.6 759
04:25:48 5 1006 3 0 NO 0 96.6 759
04:28:47 5 1006 4 0 NO 0 96.6 756
04:31:47 5 1006 6 0 NO 0 96.6 759
04:34:46 5 1006 8 0 NO 0 96.6 764
04:37:47 5 1006 12 0 NO 0 96.6 767
04:40:48 5 1006 16 0 NO 0 96.6 764
04:43:48 5 1006 22 0 NO 0 96.6 766
04:46:47 5 1006 28 0 NO 0 96.6 768
04:49:47 5 1006 35 0 NO 0 96.6 767
04:52:48 5 1006 44 0 NO 0 96.6 762
04:55:47 5 1006 52 0 NO 0 96.6 762
04:58:48 5 1006 62 0 NO 0 96.6 762
05:01:48 5 1006 71 0 NO 0 96.6 773
05:04:48 5 1006 80 0 NO 0 96.6 772
05:07:48 5 1006 89 0 NO 0 96.6 773
05:10:47 5 1006 97 1 N 0 96.6 771
05:13:48 5 1006 105 1 NO 0 96.6 764
05:16:47 5 1006 112 0 N 0 96.6 773
05:19:48 5 1006 118 0 N 0 96.6 778
05:22:49 5 1006 124 0 N 0 96.6 777
05:25:47 5 1006 130 0 N 0 96.6 781
05:28:47 5 1006 134 0 N 0 96.6 774
05:31:48 5 1006 139 0 N 0 96.6 781
05:34:47 5 1006 143 0 N 0 96.6 776
05:37:47 5 1006 146 0 N 0 96.6 773
05:40:49 5 1006 150 0 N 0 96.6 770
05:43:46 5 1006 152 0 N 0 96.6 776
05:46:47 5 1006 155 0 N 0 96.6 780
05:49:48 5 1006 157 0 N 0 96.6 782
05:52:48 5 1006 159 0 N 0 96.6 789
05:55:47 5 1006 161 0 N 0 96.6 785
05:58:47 5 1006 163 0 N 0 96.6 785
06:01:48 5 1006 165 0 N 0 96.6 786
06:04:48 5 1006 166 0 N 0 96.6 792
06:07:48 6 1006 167 0 N 0 96.6 782
06:10:46 6 1006 168 0 N 0 96.6 775
06:13:49 6 1006 170 0 N 0 96.6 782
06:16:48 6 1006 171 0 N 0 96.6 780
06:19:49 6 1006 172 0 NO 0 96.6 785
06:22:48 7 1006 173 0 O 0 96.6 783
06:25:47 7 1006 173 0 O 0 96.6 787
06:28:47 7 1006 174 0 N 0 96.6 785
06:31:47 7 1006 175 0 N 0 96.6 793
06:34:48 7 1006 176 0 N 0 96.6 793
06:37:46 7 1006 176 0 O 0 96.6 796
06:40:46 7 1005 177 0 O 0 96.6 788
06:43:46 7 1006 178 0 O 0 96.6 781
06:46:48 7 1006 179 0 O 0 96.6 551
06:49:46 8 1006 179 0 O 0 96.6 495
06:52:46 8 1006 180 0 O 0 96.6 483
06:55:49 8 1006 180 1 NO 0 96.6 498
06:58:50 8 1006 180 0 NO 0 96.6 493
07:01:49 9 1006 181 0 NO 0 96.6 486
07:04:49 9 1006 181 0 NO 0 96.6 483
07:07:50 9 1006 182 1 NO 0 96.6 481
07:10:47 9 1006 182 0 S 0 96.6 486
07:13:47 9 1006 183 0 O 0 96.6 507
07:16:46 10 1006 183 0 O 0 96.6 519
07:19:48 10 1006 183 0 O 0 96.6 537
07:22:47 11 1006 183 0 O 0 96.6 548
07:25:47 12 1006 183 0 O 0 96.6 550
07:28:50 14 1006 183 0 O 0 96.2 555
07:31:48 13 1006 183 0 O 0 91.7 557
07:34:47 13 1006 183 0 O 0 85.8 560
07:37:50 14 1006 183 0 SO 0 81.6 549
07:40:49 15 1006 183 0 NW 0 80.7 534
07:43:31 13 1006 183 1 N 0 73.7 527
07:46:50 15 1006 183 0 SO 0 73 521
07:49:49 15 1006 183 0 O 0 71.5 513
07:52:53 16 1006 183 2 S 0 69.2 522
07:55:52 16 1006 183 0 SO 0 68 522
07:58:47 17 1005 183 0 O 0 67.6 522
08:01:51 17 1006 183 0 N 0 62.2 528
08:04:50 18 1006 183 2 NO 0 60.5 530
08:07:47 18 1006 183 3 0 62.5 524
08:10:50 17 1005 183 0 NO 0 66.7 530
08:13:51 16 1006 183 0 N 0 70.7 535
08:16:49 16 1006 183 0 NO 0 71.5 530
08:19:48 15 1005 183 0 O 0 74 524
08:22:48 15 1006 183 0 N 0 74.7 521
08:25:47 15 1006 183 3 N 0 75.4 518
08:28:31 14 1006 184 2 N 0 63.7 521
08:31:50 15 1005 184 0 SO 0 76.8 516
08:34:48 15 1006 184 0 SO 0 76.8 521
08:37:49 16 1006 184 5 NO 0 75.5 517
08:40:48 16 1006 184 0 SO 0 74.5 517
08:43:49 16 1006 184 1 NO 0 73.9 519
08:46:49 16 1006 185 2 N 0 73.6 517
08:49:48 16 1006 185 1 SO 0 72.4 513
08:52:50 16 1006 185 3 N 0 70.5 514
08:55:49 16 1006 185 1 NO 0 71.3 507
08:58:50 16 1005 185 0 O 0 72 522
09:01:47 16 1006 186 4 0 72.2 519
09:04:47 16 1006 186 1 S 0 70.5 519
09:07:48 16 1006 186 2 N 0 72 515
09:10:47 16 1005 187 6 O 0 65.1 510
09:13:48 16 1005 188 4 W 0 64.8 513
09:16:48 16 1006 188 2 SO 0 65.3 507
09:19:49 17 1006 189 1 NW 0 65.7 503
09:22:50 17 1005 189 2 S 0 66.8 499
09:25:49 17 1006 189 1 S 0 65.7 492
09:28:47 17 1005 190 1 S 0 65.9 495
09:31:51 17 1005 190 3 NW 0 66.1 492
09:34:49 17 1006 190 5 NO 0 66.2 489
09:37:52 17 1005 190 4 SO 0 67.2 481
09:40:50 17 1005 190 1 O 0 67.8 478
09:43:49 17 1005 190 5 SO 0 67.2 478
09:46:47 17 1005 190 3 NO 0 65.9 471
09:49:48 17 1005 190 1 O 0 65.1 466
09:52:47 17 1005 191 0 O 0 65.3 469
09:55:47 18 1005 191 2 O 0 64.2 469
09:58:46 18 1005 191 3 S 0 63 472
10:01:48 18 1006 191 3 N 0 64.6 468
10:04:46 18 1005 191 7 NO 0 59.9 466
10:07:49 18 1006 191 6 O 0 58.8 466
10:10:46 18 1005 191 1 S 0 60 466
10:13:50 18 1005 192 7 N 0 57.6 463
10:16:48 18 1005 192 2 NO 0 57.5 454
10:19:48 18 1005 192 5 NW 0 57.6 456
10:22:49 18 1005 192 10 NO 0 56.4 466
10:25:50 18 1005 192 5 S 0 58.8 465
10:28:47 18 1005 193 10 S 0 58.6 466
10:31:48 18 1005 193 0 NW 0 57.3 457
10:34:48 19 1005 193 2 W 0 56.2 463
10:37:49 19 1005 194 2 NW 0 56 457
10:40:48 19 1005 194 4 SO 0 55.8 457
10:43:48 19 1005 194 10 SO 0 55.6 458
10:46:46 19 1005 194 5 S 0 56.9 460
10:49:51 19 1005 195 5 SO 0 56.9 463
10:52:48 19 1005 195 6 S 0 56.4 460
10:55:46 19 1005 195 1 O 0 55.7 448
10:58:48 19 1005 195 3 O 0 57.6 445
11:01:48 19 1006 196 3 SO 0 58 451
11:04:48 19 1005 196 2 SO 0 54.2 448
11:07:49 20 1005 196 5 S 0 54.2 445
11:10:47 20 1005 197 5 S 0 55.3 439
11:13:47 20 1005 197 1 NW 0 56.7 442
11:16:46 20 1005 197 6 S 0 55.5 440
11:19:49 20 1005 197 3 NO 0 53.7 448
11:22:47 20 1005 198 2 SW 0 52.3 443
11:25:51 20 1005 198 15 SO 0 53.7 448
11:28:47 20 1005 199 6 O 0 52.5 442
11:31:48 20 1004 199 6 SO 0 51.3 443
11:34:48 20 1005 199 5 N 0 51.3 437
11:37:51 20 1004 200 5 NO 0 52.2 433
11:40:48 20 1004 200 1 NO 0 51.5 425
11:43:49 20 1004 201 2 NO 0 48.1 428
11:46:48 21 1005 202 4 SO 0 53.1 427
11:49:48 21 1004 203 0 N 0 48.7 430
11:52:48 21 1005 204 1 NW 0 48.4 430
11:55:48 21 1005 205 6 NO 0 44.9 430
11:58:49 22 1005 206 2 SW 0 47 430
12:01:49 22 1005 206 7 N 0 43.8 431
12:04:49 22 1004 207 6 N 0 44.3 427
12:07:47 22 1005 210 7 SO 0 44.9 426
12:10:47 22 1004 209 6 O 0 42.8 420
12:13:47 22 1005 209 3 S 0 41.6 418
12:16:46 22 1004 209 3 N 0 43 421
12:19:49 22 1005 210 5 NO 0 44 418
12:22:48 22 1005 211 3 NO 0 48.6 410
12:25:47 23 1005 211 1 N 0 46.2 410
12:28:47 23 1005 210 2 SO 0 45.3 416
12:31:50 23 1004 211 4 N 0 43.3 422
12:34:48 23 1005 211 5 O 0 42.4 422
12:37:48 22 1005 211 7 NO 0 41 418
12:40:51 22 1005 213 9 NW 0 43.7 413
12:43:48 22 1004 213 1 O 0 43.8 404
12:46:50 23 1005 210 0 NO 0 42.1 407
12:49:48 23 1004 213 5 NO 0 42.3 404
12:52:49 23 1005 215 0 SW 0 43.2 407
12:55:47 24 1004 215 1 NO 0 41.9 410
12:58:48 24 1003 216 5 S 0 42 407
13:01:48 25 1003 217 2 NW 0 42.7 410
13:04:50 24 1004 219 7 NO 0 39.4 403
13:07:49 23 1004 219 4 NO 0 39.1 402
13:10:47 24 1003 220 5 O 0 41.4 404
13:13:48 24 1004 220 8 SO 0 43.1 407
13:16:46 24 1004 221 7 N 0 41 405
13:19:48 24 1003 222 5 N 0 39.6 404
13:22:49 24 1003 223 6 O 0 43.3 405
13:25:50 25 1003 222 10 SO 0 41.8 407
13:28:48 25 1003 221 10 S 0 41.1 407
13:31:47 27 1004 222 5 O 0 39.6 401
13:34:46 27 1003 222 4 N 0 37.7 407
13:37:47 26 1003 222 2 N 0 36.2 407
13:40:49 26 1003 224 3 O 0 35.6 407
13:43:46 26 1003 227 5 O 0 39.1 404
13:46:49 26 1003 226 5 NW 0 40.1 407
13:49:49 27 1003 226 5 S 0 40.7 407
13:52:46 27 1003 227 5 0 37.1 404
13:55:48 27 1003 229 3 S 0 36.6 401
13:58:49 27 1002 230 10 S 0 38.2 407
14:01:49 27 1002 231 13 S 0 35.5 407
14:04:48 28 1003 232 6 SO 0 36.4 407
14:07:50 28 1003 231 0 SO 0 35.8 407
14:10:48 28 1003 234 0 SO 0 35.8 406
14:13:47 27 1003 237 9 O 0 33.3 408
14:16:50 26 1003 238 10 W 0 35.9 407
14:19:50 26 1003 239 9 SW 0 36.9 404
14:22:50 27 1002 239 1 SO 0 37.5 407
14:25:46 28 1002 240 4 S 0 37.4 406
14:28:49 27 1002 240 2 SO 0 32.9 407
14:31:48 26 1003 240 1 S 0 34.8 406
14:34:48 26 1002 242 4 NO 0 36.7 407
14:37:51 26 1002 238 1 SO 0 37.2 407
14:40:48 27 1002 242 5 SO 0 36.5 407
14:43:49 28 1002 242 0 SO 0 37.5 405
14:46:49 28 1002 243 2 W 0 36.7 407
14:49:48 28 1002 243 3 W 0 37.2 407
14:52:48 28 1002 243 6 S 0 36.2 405
14:55:48 29 1002 242 4 S 0 34.8 404
14:58:49 29 1003 239 3 W 0 33.9 401
15:01:50 29 1002 238 2 SO 0 32.1 404
15:04:35 28 1002 244 6 S 0 40 407
15:07:49 28 1002 244 1 NO 0 35.5 407
15:10:50 28 1002 245 8 S 0 36.1 404
15:13:48 29 1002 238 6 SO 0 35 407
15:16:50 29 1002 243 3 NO 0 33.6 407
15:19:50 27 1002 245 6 NW 0 31.6 406
15:22:49 27 1002 244 4 N 0 32.2 407
15:25:50 27 1002 245 1 NO 0 33.2 407
15:28:50 27 1002 240 1 SO 0 32.9 407
15:31:50 26 1002 239 4 SO 0 33.3 407
15:34:48 26 1002 244 3 N 0 34.1 405
15:37:47 27 1002 245 4 SO 0 34.2 407
15:40:46 27 1002 245 4 N 0 31.7 407
15:43:49 28 1002 245 6 N 0 32.7 407
15:46:48 27 1002 243 4 NW 0 30.4 404
15:49:49 27 1002 241 3 SO 0 32.4 404
15:52:47 26 1002 241 4 N 0 35.4 404
15:55:49 26 1002 241 1 NO 0 34.6 404
15:58:51 25 1002 242 5 NO 0 33.6 404
16:01:48 25 1002 246 3 NO 0 34.1 407
16:04:47 26 1002 246 2 W 0 35.8 407
16:07:49 27 1002 247 5 O 0 36.3 407
16:10:52 26 1002 245 2 O 0 32.3 404
16:13:31 25 1002 244 9 N 0 40 407
16:16:50 25 1002 243 1 NO 0 37.3 407
16:19:50 26 1002 247 3 NO 0 37 407
16:22:51 27 1002 246 4 NO 0 34.7 404
16:25:48 28 1002 247 3 SO 0 34.5 416
16:28:48 28 1002 243 7 N 0 33.7 410
16:31:48 28 1002 246 1 SO 0 32.6 410
16:34:49 27 1002 245 6 N 0 32.5 407
16:37:52 26 1002 238 10 NW 0 32.7 404
16:40:50 25 1002 234 0 SO 0 36.3 401
16:43:50 25 1002 235 4 SO 0 36.9 405
16:46:48 26 1002 232 4 S 0 37.6 410
16:49:50 26 1002 242 4 0 37.6 414
16:52:47 26 1002 231 1 O 0 38.7 415
16:55:49 26 1002 236 5 SO 0 37.3 424
16:58:47 26 1002 239 2 S 0 38.7 419
17:01:49 27 1002 231 0 S 0 37 408
17:04:50 26 1002 234 1 NW 0 36 413
17:07:50 25 1002 234 0 O 0 38.4 418
17:10:48 25 1002 236 0 S 0 38.4 413
17:13:48 25 1002 206 0 O 0 37.9 410
17:16:51 25 1002 199 3 NW 0 37.1 419
17:19:48 25 1002 239 0 NO 0 38 422
17:22:46 26 1002 247 1 S 0 39.1 418
17:25:48 28 1002 247 0 O 0 39.1 413
17:28:50 30 1002 247 0 O 0 36.5 419
17:31:50 30 1002 246 3 SO 0 29.8 433
17:34:48 30 1002 246 3 SO 0 29.7 443
17:37:49 29 1002 247 0 SO 0 30.9 448
17:40:48 29 1002 247 3 O 0 30.9 458
17:43:47 29 1002 247 3 O 0 28.8 468
17:46:49 29 1002 244 5 NO 0 29.1 478
17:49:48 28 1002 244 5 O 0 30.3 480
17:52:48 28 1002 242 1 SO 0 33.4 480
17:55:46 27 1002 241 4 S 0 34.5 486
17:58:48 27 1002 246 0 O 0 34.8 486
18:01:48 28 1002 246 0 S 0 35.7 490
18:04:49 29 1002 245 1 NO 0 32.7 503
18:07:47 29 1002 246 0 S 0 31.6 511
18:10:53 29 1002 246 6 N 0 29.4 508
18:13:47 29 1002 246 3 O 0 29.5 497
18:16:48 29 1002 244 4 NO 0 29.8 498
18:19:48 27 1002 244 2 NO 0 30.6 500
18:22:50 27 1002 243 4 NO 0 33.5 499
18:25:50 27 1002 245 3 NO 0 33.2 500
18:28:50 27 1002 245 5 NO 0 32.2 496
18:31:49 27 1002 246 5 O 0 32.9 499
18:34:52 27 1002 244 6 NO 0 33.8 495
18:37:50 27 1002 232 2 NO 0 33.5 487
18:40:34 26 1002 223 3 N 0 40 489
18:43:47 24 1002 240 0 O 0 36.8 495
18:46:50 24 1002 236 3 NO 0 38.1 497
18:49:47 24 1002 244 4 N 0 38.8 493
18:52:48 24 1002 235 5 0 38.9 486
18:55:49 24 1002 231 2 N 0 38.2 489
18:58:48 24 1002 225 4 NO 0 38.8 486
19:01:49 24 1001 222 3 NO 0 39.4 483
19:04:50 23 1002 222 1 O 0 41.7 484
19:07:49 23 1002 223 1 O 0 42.3 480
19:10:49 23 1002 222 1 N 0 42.4 487
19:13:49 23 1001 219 3 NW 0 43.1 489
19:16:50 23 1001 220 1 NW 0 42.5 486
19:19:47 23 1002 217 5 N 0 43 486
19:22:50 23 1002 215 5 NW 0 44.1 489
19:25:47 23 1002 211 2 O 0 44.1 489
19:28:49 22 1001 209 7 NO 0 44 480
19:31:48 22 1002 209 1 O 0 45.1 474
19:34:48 22 1002 209 9 NO 0 45.3 475
19:37:47 22 1001 210 5 N 0 46.2 474
19:40:49 22 1002 211 7 N 0 47.1 486
19:43:48 22 1002 211 6 N 0 47.6 492
19:46:50 22 1001 210 7 N 0 47.8 487
19:49:49 22 1001 208 6 N 0 48.2 486
19:52:49 21 1001 207 9 NO 0 48.4 486
19:55:49 21 1002 207 10 NO 0 48.2 471
19:58:49 21 1002 206 1 N 0 48.4 468
20:01:50 21 1001 208 4 N 0 48.8 475
20:04:47 21 1002 208 3 O 0 49.1 487
20:07:48 21 1001 206 0 N 0 49.2 492
20:10:50 21 1002 204 6 NW 0 49.2 492
20:13:47 21 1002 201 2 N 0 49.4 490
20:16:50 21 1002 199 2 N 0 49.8 483
20:19:49 21 1002 198 2 NO 0 50.2 483
20:22:49 21 1002 196 8 O 0 50.2 480
20:25:50 21 1002 194 3 NW 0 50.7 474
20:28:48 20 1002 194 4 O 0 51.9 469
20:31:47 20 1001 194 2 N 0 52.1 471
20:34:48 20 1002 194 3 NO 0 51.7 479
20:37:48 20 1002 190 1 NO 0 51.8 484
20:40:49 20 1001 183 4 NW 0 52.2 492
20:43:48 20 1000 175 5 O 0 52.3 492
20:46:51 20 1002 168 1 SO 0 53 481
20:49:47 20 1002 161 4 N 0 53.3 475
20:52:47 20 1001 154 7 N 0 53.3 469
20:55:50 20 1002 145 2 N 0 53.6 472
20:58:49 20 1002 139 3 N 0 54.2 477
21:01:49 19 1002 126 4 O 0 54.3 483
21:04:46 19 1002 115 3 N 0 54.6 490
21:07:49 19 1002 108 1 NO 0 54.6 480
21:10:48 19 1002 103 3 N 0 54.6 478
21:13:46 19 1002 95 1 SO 0 54.9 478
21:16:49 19 1002 86 1 NW 0 55.3 480
21:19:48 19 1002 76 2 NW 0 55.8 482
21:22:48 19 1002 69 3 NO 0 56.4 478
21:25:48 19 1002 60 1 W 0 55.7 481
21:28:47 19 1002 56 9 N 0 55.7 480
21:31:50 19 1002 54 1 NO 0 55.9 478
21:34:48 19 1002 48 4 W 0 56 475
21:37:48 19 1002 45 0 W 0 56.1 480
21:40:47 19 1002 39 6 O 0 56.1 483
21:43:49 19 1002 31 4 NO 0 56.3 478
21:46:47 19 1002 22 1 S 0 56.1 469
21:49:48 19 1002 16 1 N 0 56.2 471
21:52:47 18 1002 11 3 W 0 56.3 481
21:55:46 18 1002 7 2 N 0 56.4 474
21:58:50 18 1002 4 0 NW 0 56.4 469
22:01:47 18 1002 3 1 N 0 56.6 466
22:04:48 18 1002 0 2 NO 0 56.5 466
22:07:49 18 1002 0 2 NO 0 56.5 469
22:10:47 18 1002 0 1 NO 0 56.5 471
22:13:49 18 1002 0 3 NW 0 56.5 468
22:16:48 18 1002 0 3 NO 0 56.4 475
22:19:49 18 1002 0 2 O 0 56.5 478
22:22:51 18 1002 0 3 NW 0 56.1 469
22:25:46 18 1002 0 3 O 0 55.9 480
22:28:49 18 1002 0 2 NO 0 56.2 474
22:31:47 18 1002 0 4 N 0 56.7 475
22:34:47 18 1002 0 5 NW 0 56.7 475
22:37:47 18 1002 0 1 NO 0 56.6 471
22:40:48 18 1002 0 1 NW 0 56.8 466
22:43:49 18 1002 0 1 NO 0 57.4 463
22:46:47 18 1002 0 3 NO 0 57.8 469
22:49:47 18 1002 0 1 O 0 57.8 477
22:52:46 18 1002 0 2 N 0 57.6 477
22:55:45 18 1002 0 2 NO 0 57.4 471
22:58:47 18 1002 0 3 NO 0 57.5 475
23:01:47 18 1002 0 0 O 0 57.3 478
23:04:48 18 1002 0 2 NO 0 57.2 483
23:07:47 18 1002 0 2 NO 0 57.2 492
23:10:49 18 1002 0 1 NO 0 57.1 503
23:13:46 17 1002 0 1 N 0 57.6 501
23:16:48 17 1002 0 0 NO 0 58.4 512
23:19:45 17 1002 0 0 O 0 58.9 518
23:22:49 17 1002 0 1 O 0 58.7 527
23:25:49 17 1002 0 3 SO 0 58.6 533
23:28:47 17 1002 0 0 NW 0 58.4 539
23:31:47 17 1002 0 5 N 0 58.3 545
23:34:49 17 1002 0 4 NO 0 58.5 554
23:37:48 17 1002 0 0 NW 0 58.5 558
23:40:47 17 1002 0 3 O 0 58.3 564
23:43:46 17 1003 0 2 W 0 58.3 565
23:46:47 17 1002 0 1 N 0 58.6 571
23:49:47 17 1002 0 2 NW 0 58.7 574
23:52:48 17 1002 0 2 N 0 59.1 577
23:55:47 17 1002 0 1 O 0 59.2 577
23:58:46 17 1002 0 3 N 0 59.3 576

Letzte Änderung : 22-Jul-2022
Copyright Jens Köhler, Wolfsburg, Obere Dorfstraße 10d